Location: Aulnoy
(48.8410°N, 3.0967°E)
Time: 14:56:18
(UTC+00:00)

Envisat - Pass Details

Date: 08 March 2024
Orbit: 762 x 764 km, 98.3° (Epoch: 22 April)

Event Time Altitude Azimuth Distance (km) Brightness Sun altitude
Rises 04:15:36 0° 7° (N) 3,243 6.6 -20.2°
Reaches altitude 10° 04:18:04 10° 359° (N) 2,312 5.7 -19.9°
Maximum altitude 04:22:39 35° 295° (WNW) 1,220 3.6 -19.1°
Enters shadow 04:23:17 34° 279° (W) 1,249 3.6 -19.0°
